Time,TemperatureF,DewpointF,PressureIn,WindDirection,WindDirectionDegrees,WindSpeedMPH,WindSpeedGustMPH,Humidity,HourlyPrecipIn,Conditions,Clouds,dailyrainin,SoftwareType,DateUTC
2013-02-21 00:00:00,34.1,24.6,29.61,WNW,288,2.0,3.0,68,0.00,,,0.00,Wunderground v.1.15,2013-02-21 07:00:00,
2013-02-21 00:10:00,33.7,24.3,29.61,WNW,286,2.0,2.0,68,0.00,,,0.00,Wunderground v.1.15,2013-02-21 07:10:00,
2013-02-21 00:15:00,33.5,24.1,29.61,WNW,286,1.0,2.0,68,0.00,,,0.00,Wunderground v.1.15,2013-02-21 07:15:00,
2013-02-21 00:20:00,33.5,24.1,29.61,WNW,286,1.0,1.0,68,0.00,,,0.00,Wunderground v.1.15,2013-02-21 07:20:00,
2013-02-21 00:25:00,33.4,24.0,29.61,WNW,286,1.0,1.0,68,0.00,,,0.00,Wunderground v.1.15,2013-02-21 07:25:00,
2013-02-21 00:30:00,33.3,23.9,29.61,WNW,286,0.0,7.0,68,0.00,,,0.00,Wunderground v.1.15,2013-02-21 07:30:00,
2013-02-21 00:35:00,33.3,23.9,29.62,WNW,286,0.0,7.0,68,0.00,,,0.00,Wunderground v.1.15,2013-02-21 07:35:00,
2013-02-21 00:45:00,33.3,23.5,29.62,WNW,286,0.0,1.0,67,0.00,,,0.00,Wunderground v.1.15,2013-02-21 07:45:00,
2013-02-21 00:50:00,33.4,23.6,29.63,WNW,286,0.0,1.0,67,0.00,,,0.00,Wunderground v.1.15,2013-02-21 07:50:00,
2013-02-21 01:00:00,33.4,23.6,29.63,WSW,248,2.0,2.0,67,0.00,,,0.00,Wunderground v.1.15,2013-02-21 08:00:00,
2013-02-21 01:05:00,33.4,23.6,29.64,SSW,202,2.0,2.0,67,0.00,,,0.00,Wunderground v.1.15,2013-02-21 08:05:00,
2013-02-21 01:10:00,33.3,23.9,29.64,SSW,202,2.0,2.0,68,0.00,,,0.00,Wunderground v.1.15,2013-02-21 08:10:00,
2013-02-21 01:20:00,32.4,25.0,29.64,SE,142,3.0,3.0,74,0.00,,,0.00,Wunderground v.1.15,2013-02-21 08:20:00,
2013-02-21 01:25:00,31.7,25.3,29.64,SSW,193,4.0,4.0,77,0.00,,,0.00,Wunderground v.1.15,2013-02-21 08:25:00,
2013-02-21 01:30:00,31.3,25.2,29.65,South,188,3.0,3.0,78,0.00,,,0.00,Wunderground v.1.15,2013-02-21 08:30:00,
2013-02-21 01:35:00,30.9,25.2,29.65,SW,220,4.0,4.0,79,0.00,,,0.00,Wunderground v.1.15,2013-02-21 08:35:00,
2013-02-21 01:40:00,30.6,24.9,29.65,SSE,165,4.0,4.0,79,0.00,,,0.00,Wunderground v.1.15,2013-02-21 08:40:00,
2013-02-21 01:45:00,30.5,25.1,29.65,SSW,210,3.0,4.0,80,0.00,,,0.00,Wunderground v.1.15,2013-02-21 08:45:00,
2013-02-21 01:50:00,30.2,25.1,29.65,SSW,199,4.0,4.0,81,0.00,,,0.00,Wunderground v.1.15,2013-02-21 08:50:00,
2013-02-21 01:55:00,30.1,25.0,29.66,SSW,207,3.0,4.0,81,0.00,,,0.00,Wunderground v.1.15,2013-02-21 08:55:00,
2013-02-21 02:00:00,29.9,24.8,29.66,South,188,3.0,3.0,81,0.00,,,0.00,Wunderground v.1.15,2013-02-21 09:00:00,
2013-02-21 02:05:00,29.7,24.6,29.66,South,186,3.0,4.0,81,0.00,,,0.00,Wunderground v.1.15,2013-02-21 09:05:00,
2013-02-21 02:10:00,29.5,24.7,29.66,SW,234,3.0,3.0,82,0.00,,,0.00,Wunderground v.1.15,2013-02-21 09:10:00,
2013-02-21 02:15:00,29.3,24.5,29.66,SSW,205,3.0,3.0,82,0.00,,,0.00,Wunderground v.1.15,2013-02-21 09:15:00,
2013-02-21 02:20:00,29.1,24.3,29.66,SSW,207,3.0,3.0,82,0.00,,,0.00,Wunderground v.1.15,2013-02-21 09:20:00,
2013-02-21 02:25:00,29.0,24.2,29.66,SSW,205,2.0,3.0,82,0.00,,,0.00,Wunderground v.1.15,2013-02-21 09:25:00,
2013-02-21 02:34:00,28.8,24.0,29.66,SSW,213,1.0,2.0,82,0.00,,,0.00,Wunderground v.1.15,2013-02-21 09:34:00,
2013-02-21 02:40:00,28.7,23.9,29.67,SSW,205,1.0,1.0,82,0.00,,,0.00,Wunderground v.1.15,2013-02-21 09:40:00,
2013-02-21 02:45:00,28.5,23.7,29.66,SSW,200,1.0,1.0,82,0.00,,,0.00,Wunderground v.1.15,2013-02-21 09:45:00,
2013-02-21 02:50:00,28.4,23.6,29.67,SE,132,1.0,1.0,82,0.00,,,0.00,Wunderground v.1.15,2013-02-21 09:50:00,
2013-02-21 03:00:00,28.2,23.7,29.67,SE,140,1.0,2.0,83,0.00,,,0.00,Wunderground v.1.15,2013-02-21 10:00:00,
2013-02-21 03:05:00,28.1,23.6,29.67,SE,140,1.0,2.0,83,0.00,,,0.00,Wunderground v.1.15,2013-02-21 10:05:00,
2013-02-21 03:10:00,27.9,23.1,29.68,SE,140,1.0,1.0,82,0.00,,,0.00,Wunderground v.1.15,2013-02-21 10:10:00,
2013-02-21 03:15:00,27.7,22.9,29.68,SSE,149,1.0,2.0,82,0.00,,,0.00,Wunderground v.1.15,2013-02-21 10:15:00,
2013-02-21 03:20:00,27.7,23.2,29.68,SSE,149,1.0,1.0,83,0.00,,,0.00,Wunderground v.1.15,2013-02-21 10:20:00,
2013-02-21 03:25:00,27.6,23.1,29.69,SSE,149,1.0,1.0,83,0.00,,,0.00,Wunderground v.1.15,2013-02-21 10:25:00,
2013-02-21 03:35:00,27.7,23.2,29.69,SSE,149,0.0,4.0,83,0.00,,,0.00,Wunderground v.1.15,2013-02-21 10:35:00,
2013-02-21 03:40:00,27.8,23.3,29.70,SSE,149,0.0,0.0,83,0.00,,,0.00,Wunderground v.1.15,2013-02-21 10:40:00,
2013-02-21 03:45:00,27.9,23.4,29.70,SSE,149,0.0,0.0,83,0.00,,,0.00,Wunderground v.1.15,2013-02-21 10:45:00,
2013-02-21 03:50:00,27.9,23.4,29.71,SSE,149,0.0,0.0,83,0.00,,,0.00,Wunderground v.1.15,2013-02-21 10:50:00,
2013-02-21 03:55:00,27.9,23.4,29.71,SSE,149,0.0,0.0,83,0.00,,,0.00,Wunderground v.1.15,2013-02-21 10:55:00,
2013-02-21 04:00:00,28.0,23.5,29.72,SSE,149,0.0,0.0,83,0.00,,,0.00,Wunderground v.1.15,2013-02-21 11:00:00,
2013-02-21 04:05:00,28.0,23.5,29.72,SSE,149,0.0,0.0,83,0.00,,,0.00,Wunderground v.1.15,2013-02-21 11:05:00,
2013-02-21 04:10:00,28.1,23.6,29.73,SSE,149,0.0,0.0,83,0.00,,,0.00,Wunderground v.1.15,2013-02-21 11:10:00,
2013-02-21 04:14:00,28.2,24.0,29.73,SSE,149,0.0,0.0,84,0.00,,,0.00,Wunderground v.1.15,2013-02-21 11:14:00,
2013-02-21 04:20:00,28.3,24.1,29.74,SSE,149,0.0,0.0,84,0.00,,,0.00,Wunderground v.1.15,2013-02-21 11:20:00,
2013-02-21 04:30:00,28.5,24.3,29.74,SSE,149,0.0,0.0,84,0.00,,,0.00,Wunderground v.1.15,2013-02-21 11:30:00,
2013-02-21 04:35:00,28.5,24.3,29.74,SSE,149,0.0,0.0,84,0.00,,,0.00,Wunderground v.1.15,2013-02-21 11:35:00,
2013-02-21 04:40:00,28.5,24.3,29.75,SSE,149,0.0,0.0,84,0.00,,,0.00,Wunderground v.1.15,2013-02-21 11:40:00,
2013-02-21 04:50:00,28.5,24.3,29.75,SSE,149,0.0,0.0,84,0.00,,,0.00,Wunderground v.1.15,2013-02-21 11:50:00,
2013-02-21 04:55:00,28.5,24.0,29.75,SSE,149,0.0,0.0,83,0.00,,,0.00,Wunderground v.1.15,2013-02-21 11:55:00,
2013-02-21 05:05:00,28.4,23.9,29.75,SSE,149,0.0,0.0,83,0.00,,,0.00,Wunderground v.1.15,2013-02-21 12:05:00,
2013-02-21 05:10:00,28.4,23.9,29.76,SSE,149,0.0,0.0,83,0.00,,,0.00,Wunderground v.1.15,2013-02-21 12:10:00,
2013-02-21 05:15:00,28.3,23.8,29.76,SSE,149,0.0,0.0,83,0.00,,,0.00,Wunderground v.1.15,2013-02-21 12:15:00,
2013-02-21 05:20:00,28.2,23.7,29.76,SSE,149,0.0,0.0,83,0.00,,,0.00,Wunderground v.1.15,2013-02-21 12:20:00,
2013-02-21 05:25:00,28.1,23.6,29.77,SSE,149,0.0,0.0,83,0.00,,,0.00,Wunderground v.1.15,2013-02-21 12:25:00,
2013-02-21 05:29:00,28.0,23.2,29.78,SSE,149,0.0,0.0,82,0.00,,,0.00,Wunderground v.1.15,2013-02-21 12:29:00,
2013-02-21 05:35:00,27.9,23.1,29.78,SSE,149,0.0,1.0,82,0.00,,,0.00,Wunderground v.1.15,2013-02-21 12:35:00,
2013-02-21 05:40:00,27.8,23.0,29.79,SSE,149,0.0,0.0,82,0.00,,,0.00,Wunderground v.1.15,2013-02-21 12:40:00,
2013-02-21 05:45:00,27.8,23.0,29.79,SSE,149,0.0,0.0,82,0.00,,,0.00,Wunderground v.1.15,2013-02-21 12:45:00,
2013-02-21 05:50:00,27.8,23.0,29.79,SSE,148,0.0,0.0,82,0.00,,,0.00,Wunderground v.1.15,2013-02-21 12:50:00,
2013-02-21 05:55:00,27.9,23.1,29.80,SSE,148,0.0,0.0,82,0.00,,,0.00,Wunderground v.1.15,2013-02-21 12:55:00,
2013-02-21 06:00:00,27.9,22.8,29.80,SSE,148,0.0,0.0,81,0.00,,,0.00,Wunderground v.1.15,2013-02-21 13:00:00,
2013-02-21 06:10:00,27.9,22.8,29.81,SSE,148,0.0,0.0,81,0.00,,,0.00,Wunderground v.1.15,2013-02-21 13:10:00,
2013-02-21 06:15:00,27.8,22.7,29.81,SSE,150,0.0,2.0,81,0.00,,,0.00,Wunderground v.1.15,2013-02-21 13:15:00,
2013-02-21 06:20:00,27.8,22.4,29.81,SSE,149,1.0,1.0,80,0.00,,,0.00,Wunderground v.1.15,2013-02-21 13:20:00,
2013-02-21 06:24:00,27.9,22.5,29.81,SSE,149,0.0,1.0,80,0.00,,,0.00,Wunderground v.1.15,2013-02-21 13:24:00,
2013-02-21 06:30:00,27.9,22.5,29.82,SSE,150,0.0,0.0,80,0.00,,,0.00,Wunderground v.1.15,2013-02-21 13:30:00,
2013-02-21 06:35:00,27.9,22.5,29.82,SSE,149,0.0,0.0,80,0.00,,,0.00,Wunderground v.1.15,2013-02-21 13:35:00,
2013-02-21 06:40:00,27.9,22.5,29.83,SSE,150,0.0,0.0,80,0.00,,,0.00,Wunderground v.1.15,2013-02-21 13:40:00,
2013-02-21 06:45:00,28.0,22.6,29.83,SSE,150,0.0,0.0,80,0.00,,,0.00,Wunderground v.1.15,2013-02-21 13:45:00,
2013-02-21 06:50:00,28.1,22.7,29.83,SSE,150,0.0,0.0,80,0.00,,,0.00,Wunderground v.1.15,2013-02-21 13:50:00,
2013-02-21 06:55:00,28.2,22.8,29.83,SSE,149,0.0,0.0,80,0.00,,,0.00,Wunderground v.1.15,2013-02-21 13:55:00,
2013-02-21 07:00:00,28.3,22.9,29.83,SSE,150,0.0,0.0,80,0.00,,,0.00,Wunderground v.1.15,2013-02-21 14:00:00,
2013-02-21 07:05:00,28.4,22.7,29.84,SSE,149,0.0,0.0,79,0.00,,,0.00,Wunderground v.1.15,2013-02-21 14:05:00,
2013-02-21 07:10:00,28.6,22.9,29.84,SSE,150,0.0,0.0,79,0.00,,,0.00,Wunderground v.1.15,2013-02-21 14:10:00,
2013-02-21 07:20:00,28.9,23.2,29.85,SSE,150,0.0,0.0,79,0.00,,,0.00,Wunderground v.1.15,2013-02-21 14:20:00,
2013-02-21 07:25:00,29.0,23.0,29.86,SSE,150,0.0,0.0,78,0.00,,,0.00,Wunderground v.1.15,2013-02-21 14:25:00,
2013-02-21 07:30:00,29.0,23.0,29.86,SSE,150,0.0,0.0,78,0.00,,,0.00,Wunderground v.1.15,2013-02-21 14:30:00,
2013-02-21 07:35:00,29.0,23.0,29.87,SSE,150,0.0,0.0,78,0.00,,,0.00,Wunderground v.1.15,2013-02-21 14:35:00,
2013-02-21 07:40:00,29.1,22.8,29.87,SSE,149,0.0,1.0,77,0.00,,,0.00,Wunderground v.1.15,2013-02-21 14:40:00,
2013-02-21 07:50:00,29.8,22.8,29.87,South,177,1.0,1.0,75,0.00,,,0.00,Wunderground v.1.15,2013-02-21 14:50:00,
2013-02-21 07:55:00,30.1,23.1,29.88,South,177,0.0,1.0,75,0.00,,,0.00,Wunderground v.1.15,2013-02-21 14:55:00,
2013-02-21 08:00:00,30.3,23.0,29.88,South,177,0.0,0.0,74,0.00,,,0.00,Wunderground v.1.15,2013-02-21 15:00:00,
2013-02-21 08:05:00,30.4,23.1,29.89,South,177,0.0,0.0,74,0.00,,,0.00,Wunderground v.1.15,2013-02-21 15:05:00,
2013-02-21 08:10:00,30.4,23.1,29.89,South,177,0.0,0.0,74,0.00,,,0.00,Wunderground v.1.15,2013-02-21 15:10:00,
2013-02-21 08:15:00,30.4,23.1,29.90,South,177,0.0,0.0,74,0.00,,,0.00,Wunderground v.1.15,2013-02-21 15:15:00,
2013-02-21 08:20:00,30.5,23.2,29.90,South,177,0.0,0.0,74,0.00,,,0.00,Wunderground v.1.15,2013-02-21 15:20:00,
2013-02-21 08:25:00,30.7,23.1,29.90,South,178,0.0,0.0,73,0.00,,,0.00,Wunderground v.1.15,2013-02-21 15:25:00,
2013-02-21 08:30:00,30.9,22.9,29.91,South,178,0.0,0.0,72,0.00,,,0.00,Wunderground v.1.15,2013-02-21 15:30:00,
2013-02-21 08:35:00,31.1,22.5,29.91,South,177,0.0,0.0,70,0.00,,,0.00,Wunderground v.1.15,2013-02-21 15:35:00,
2013-02-21 08:40:00,31.2,22.5,29.91,South,177,1.0,1.0,70,0.00,,,0.00,Wunderground v.1.15,2013-02-21 15:40:00,
2013-02-21 08:50:00,31.6,23.3,29.91,South,173,1.0,1.0,71,0.00,,,0.00,Wunderground v.1.15,2013-02-21 15:50:00,
2013-02-21 08:55:00,31.8,23.1,29.92,South,173,0.0,1.0,70,0.00,,,0.00,Wunderground v.1.15,2013-02-21 15:55:00,
2013-02-21 09:05:00,32.2,22.5,29.92,SSW,198,1.0,4.0,67,0.00,,,0.00,Wunderground v.1.15,2013-02-21 16:05:00,
2013-02-21 09:10:00,32.4,23.0,29.92,SSW,198,1.0,4.0,68,0.00,,,0.00,Wunderground v.1.15,2013-02-21 16:10:00,
2013-02-21 09:15:00,32.6,23.2,29.92,South,187,2.0,4.0,68,0.00,,,0.00,Wunderground v.1.15,2013-02-21 16:15:00,
2013-02-21 09:20:00,32.9,23.1,29.92,SSE,168,2.0,2.0,67,0.00,,,0.00,Wunderground v.1.15,2013-02-21 16:20:00,
2013-02-21 09:25:00,33.1,23.0,29.93,South,180,2.0,2.0,66,0.00,,,0.00,Wunderground v.1.15,2013-02-21 16:25:00,
2013-02-21 09:30:00,33.4,23.3,29.93,SSE,153,2.0,5.0,66,0.00,,,0.00,Wunderground v.1.15,2013-02-21 16:30:00,
2013-02-21 09:35:00,33.6,23.4,29.93,SSW,201,2.0,5.0,66,0.00,,,0.00,Wunderground v.1.15,2013-02-21 16:35:00,
2013-02-21 09:40:00,33.9,23.4,29.94,SSE,167,1.0,1.0,65,0.00,,,0.00,Wunderground v.1.15,2013-02-21 16:40:00,
2013-02-21 09:45:00,34.3,23.7,29.94,SE,127,1.0,1.0,65,0.00,,,0.00,Wunderground v.1.15,2013-02-21 16:45:00,
2013-02-21 09:50:00,34.4,23.8,29.93,SSW,199,1.0,2.0,65,0.00,,,0.00,Wunderground v.1.15,2013-02-21 16:50:00,
2013-02-21 09:55:00,34.5,23.6,29.93,South,187,1.0,2.0,64,0.00,,,0.00,Wunderground v.1.15,2013-02-21 16:55:00,
2013-02-21 10:00:00,35.0,23.3,29.93,South,179,2.0,2.0,62,0.00,,,0.00,Wunderground v.1.15,2013-02-21 17:00:00,
2013-02-21 10:10:00,36.0,23.8,29.93,SE,137,1.0,1.0,61,0.00,,,0.00,Wunderground v.1.15,2013-02-21 17:10:00,
2013-02-21 10:15:00,36.2,23.6,29.93,SSE,158,1.0,2.0,60,0.00,,,0.00,Wunderground v.1.15,2013-02-21 17:15:00,
2013-02-21 10:20:00,36.6,24.0,29.93,SSE,148,1.0,3.0,60,0.00,,,0.01,Wunderground v.1.15,2013-02-21 17:20:00,
2013-02-21 10:25:00,36.4,23.8,29.93,SSE,165,2.0,4.0,60,0.12,,,0.02,Wunderground v.1.15,2013-02-21 17:25:00,
2013-02-21 10:30:00,36.4,23.8,29.94,SE,128,2.0,6.0,60,0.11,,,0.03,Wunderground v.1.15,2013-02-21 17:30:00,
2013-02-21 10:35:00,36.2,23.6,29.94,South,188,3.0,6.0,60,0.08,,,0.04,Wunderground v.1.15,2013-02-21 17:35:00,
2013-02-21 10:40:00,37.0,24.4,29.94,SSE,168,3.0,3.0,60,0.08,,,0.04,Wunderground v.1.15,2013-02-21 17:40:00,
2013-02-21 10:49:00,37.1,24.5,29.94,SSE,152,2.0,2.0,60,0.05,,,0.05,Wunderground v.1.15,2013-02-21 17:49:00,
2013-02-21 10:55:00,37.1,24.5,29.93,ESE,116,2.0,2.0,60,0.08,,,0.06,Wunderground v.1.15,2013-02-21 17:55:00,
2013-02-21 11:00:00,37.5,24.5,29.93,ESE,117,2.0,2.0,59,0.07,,,0.06,Wunderground v.1.15,2013-02-21 18:00:00,
2013-02-21 11:05:00,37.9,25.6,29.93,SSE,148,1.0,4.0,61,0.04,,,0.06,Wunderground v.1.15,2013-02-21 18:05:00,
2013-02-21 11:10:00,38.3,24.4,29.93,SSW,205,2.0,5.0,57,0.04,,,0.07,Wunderground v.1.15,2013-02-21 18:10:00,
2013-02-21 11:15:00,38.8,24.0,29.93,SW,223,3.0,10.0,55,0.13,,,0.08,Wunderground v.1.15,2013-02-21 18:15:00,
2013-02-21 11:20:00,39.1,24.3,29.93,SSW,209,4.0,4.0,55,0.12,,,0.09,Wunderground v.1.15,2013-02-21 18:20:00,
2013-02-21 11:25:00,39.4,22.8,29.93,SSW,205,5.0,7.0,51,0.10,,,0.10,Wunderground v.1.15,2013-02-21 18:25:00,
2013-02-21 11:30:00,39.7,23.5,29.93,SW,228,4.0,4.0,52,0.08,,,0.11,Wunderground v.1.15,2013-02-21 18:30:00,
2013-02-21 11:35:00,40.6,24.8,29.93,SW,218,4.0,4.0,53,0.12,,,0.12,Wunderground v.1.15,2013-02-21 18:35:00,
2013-02-21 11:40:00,41.4,23.6,29.92,SW,225,4.0,8.0,49,0.11,,,0.12,Wunderground v.1.15,2013-02-21 18:40:00,
2013-02-21 11:45:00,41.1,24.3,29.92,South,184,5.0,8.0,51,0.10,,,0.13,Wunderground v.1.15,2013-02-21 18:45:00,
2013-02-21 11:50:00,41.1,23.9,29.92,SSW,200,5.0,5.0,50,0.12,,,0.14,Wunderground v.1.15,2013-02-21 18:50:00,
2013-02-21 11:55:00,40.7,23.5,29.92,SW,220,4.0,11.0,50,0.09,,,0.15,Wunderground v.1.15,2013-02-21 18:55:00,
2013-02-21 12:00:00,40.3,23.1,29.92,WSW,244,6.0,6.0,50,0.07,,,0.15,Wunderground v.1.15,2013-02-21 19:00:00,
2013-02-21 12:05:00,40.7,24.0,29.92,SW,229,6.0,11.0,51,0.07,,,0.16,Wunderground v.1.15,2013-02-21 19:05:00,
2013-02-21 12:10:00,41.3,24.0,29.92,WSW,237,4.0,4.0,50,0.07,,,0.17,Wunderground v.1.15,2013-02-21 19:10:00,
2013-02-21 12:15:00,41.5,23.7,29.92,WSW,243,3.0,12.0,49,0.07,,,0.17,Wunderground v.1.15,2013-02-21 19:15:00,
2013-02-21 12:20:00,41.1,23.4,29.92,SW,228,5.0,5.0,49,0.07,,,0.18,Wunderground v.1.15,2013-02-21 19:20:00,
2013-02-21 12:25:00,40.9,23.7,29.92,SSW,205,5.0,5.0,50,0.07,,,0.18,Wunderground v.1.15,2013-02-21 19:25:00,
2013-02-21 12:29:00,40.8,23.1,29.91,SSW,209,3.0,12.0,49,0.05,,,0.18,Wunderground v.1.15,2013-02-21 19:29:00,
2013-02-21 12:34:00,40.8,24.1,29.91,South,190,3.0,12.0,51,0.05,,,0.19,Wunderground v.1.15,2013-02-21 19:34:00,
2013-02-21 12:40:00,40.7,23.5,29.91,SW,236,3.0,10.0,50,0.05,,,0.19,Wunderground v.1.15,2013-02-21 19:40:00,
2013-02-21 12:45:00,40.8,23.6,29.91,WSW,255,4.0,10.0,50,0.04,,,0.19,Wunderground v.1.15,2013-02-21 19:45:00,
2013-02-21 12:55:00,41.3,23.1,29.90,SSW,211,3.0,4.0,48,0.00,,,0.20,Wunderground v.1.15,2013-02-21 19:55:00,
2013-02-21 13:00:00,41.4,23.2,29.90,WSW,237,4.0,4.0,48,0.00,,,0.20,Wunderground v.1.15,2013-02-21 20:00:00,
2013-02-21 13:05:00,41.5,22.7,29.89,SW,236,4.0,6.0,47,0.00,,,0.20,Wunderground v.1.15,2013-02-21 20:05:00,
2013-02-21 13:10:00,41.9,22.6,29.89,West,269,3.0,3.0,46,0.00,,,0.20,Wunderground v.1.15,2013-02-21 20:10:00,
2013-02-21 13:15:00,42.5,22.1,29.89,NW,304,3.0,4.0,44,0.00,,,0.20,Wunderground v.1.15,2013-02-21 20:15:00,
2013-02-21 13:20:00,43.1,22.1,29.88,WNW,286,4.0,4.0,43,0.00,,,0.20,Wunderground v.1.15,2013-02-21 20:20:00,
2013-02-21 13:25:00,43.5,22.5,29.88,West,265,4.0,4.0,43,0.00,,,0.20,Wunderground v.1.15,2013-02-21 20:25:00,
2013-02-21 13:30:00,43.8,22.7,29.88,WNW,294,4.0,13.0,43,0.00,,,0.21,Wunderground v.1.15,2013-02-21 20:30:00,
2013-02-21 13:35:00,43.8,22.7,29.88,WSW,252,3.0,13.0,43,0.00,,,0.21,Wunderground v.1.15,2013-02-21 20:35:00,
2013-02-21 13:40:00,43.6,20.2,29.88,NNW,341,4.0,9.0,39,0.00,,,0.21,Wunderground v.1.15,2013-02-21 20:40:00,
2013-02-21 13:45:00,43.5,20.7,29.88,NNW,329,4.0,9.0,40,0.00,,,0.21,Wunderground v.1.15,2013-02-21 20:45:00,
2013-02-21 13:50:00,43.6,20.8,29.89,NW,317,3.0,3.0,40,0.00,,,0.21,Wunderground v.1.15,2013-02-21 20:50:00,
2013-02-21 13:55:00,43.8,21.0,29.89,WNW,292,3.0,3.0,40,0.00,,,0.21,Wunderground v.1.15,2013-02-21 20:55:00,
2013-02-21 14:00:00,44.1,20.7,29.89,WNW,284,3.0,4.0,39,0.00,,,0.21,Wunderground v.1.15,2013-02-21 21:00:00,
2013-02-21 14:05:00,44.8,21.9,29.89,NNW,340,3.0,6.0,40,0.00,,,0.21,Wunderground v.1.15,2013-02-21 21:05:00,
2013-02-21 14:09:00,45.7,20.9,29.89,West,265,3.0,6.0,37,0.00,,,0.21,Wunderground v.1.15,2013-02-21 21:09:00,
2013-02-21 14:14:00,46.3,22.0,29.89,NNE,14,3.0,6.0,38,0.00,,,0.21,Wunderground v.1.15,2013-02-21 21:14:00,
2013-02-21 14:20:00,46.5,20.9,29.89,WNW,284,3.0,4.0,36,0.00,,,0.21,Wunderground v.1.15,2013-02-21 21:20:00,
2013-02-21 14:25:00,46.7,23.0,29.89,WNW,295,3.0,4.0,39,0.00,,,0.21,Wunderground v.1.15,2013-02-21 21:25:00,
2013-02-21 14:30:00,46.5,20.9,29.89,WNW,288,3.0,3.0,36,0.00,,,0.21,Wunderground v.1.15,2013-02-21 21:30:00,
2013-02-21 14:35:00,45.9,21.1,29.89,NW,316,4.0,4.0,37,0.00,,,0.21,Wunderground v.1.15,2013-02-21 21:35:00,
2013-02-21 14:40:00,45.8,21.6,29.89,NW,324,3.0,3.0,38,0.00,,,0.21,Wunderground v.1.15,2013-02-21 21:40:00,
2013-02-21 14:45:00,46.7,21.8,29.89,WNW,294,3.0,4.0,37,0.00,,,0.21,Wunderground v.1.15,2013-02-21 21:45:00,
2013-02-21 14:55:00,46.3,20.1,29.89,NW,305,5.0,10.0,35,0.00,,,0.21,Wunderground v.1.15,2013-02-21 21:55:00,
2013-02-21 15:05:00,46.3,20.8,29.89,West,275,4.0,7.0,36,0.00,,,0.21,Wunderground v.1.15,2013-02-21 22:05:00,
2013-02-21 15:10:00,46.8,21.2,29.89,WNW,292,4.0,4.0,36,0.00,,,0.21,Wunderground v.1.15,2013-02-21 22:10:00,
2013-02-21 15:15:00,47.1,20.8,29.89,WNW,284,4.0,5.0,35,0.00,,,0.21,Wunderground v.1.15,2013-02-21 22:15:00,
2013-02-21 15:25:00,46.4,21.5,29.90,West,271,3.0,3.0,37,0.00,,,0.21,Wunderground v.1.15,2013-02-21 22:25:00,
2013-02-21 15:30:00,46.0,20.5,29.90,WSW,248,3.0,3.0,36,0.00,,,0.21,Wunderground v.1.15,2013-02-21 22:30:00,
2013-02-21 15:35:00,45.7,20.2,29.90,WNW,289,3.0,3.0,36,0.00,,,0.21,Wunderground v.1.15,2013-02-21 22:35:00,
2013-02-21 15:40:00,45.5,18.7,29.90,NNW,344,2.0,2.0,34,0.00,,,0.21,Wunderground v.1.15,2013-02-21 22:40:00,
2013-02-21 15:44:00,45.2,19.8,29.90,NW,313,2.0,2.0,36,0.00,,,0.21,Wunderground v.1.15,2013-02-21 22:44:00,
2013-02-21 15:50:00,45.0,20.3,29.90,WSW,252,2.0,2.0,37,0.00,,,0.21,Wunderground v.1.15,2013-02-21 22:50:00,
2013-02-21 15:55:00,44.7,21.8,29.91,West,266,3.0,3.0,40,0.00,,,0.21,Wunderground v.1.15,2013-02-21 22:55:00,
2013-02-21 16:00:00,44.2,20.8,29.91,WSW,253,2.0,2.0,39,0.00,,,0.21,Wunderground v.1.15,2013-02-21 23:00:00,
2013-02-21 16:05:00,44.0,21.8,29.91,WNW,290,2.0,2.0,41,0.00,,,0.21,Wunderground v.1.15,2013-02-21 23:05:00,
2013-02-21 16:10:00,44.0,21.8,29.91,WSW,258,2.0,2.0,41,0.00,,,0.21,Wunderground v.1.15,2013-02-21 23:10:00,
2013-02-21 16:15:00,44.1,21.3,29.91,WSW,246,3.0,3.0,40,0.00,,,0.21,Wunderground v.1.15,2013-02-21 23:15:00,
2013-02-21 16:25:00,44.5,22.8,29.91,SW,221,2.0,3.0,42,0.00,,,0.21,Wunderground v.1.15,2013-02-21 23:25:00,
2013-02-21 16:29:00,44.7,21.8,29.91,WSW,239,2.0,10.0,40,0.00,,,0.21,Wunderground v.1.15,2013-02-21 23:29:00,
2013-02-21 16:35:00,45.2,21.7,29.91,WSW,240,3.0,10.0,39,0.00,,,0.21,Wunderground v.1.15,2013-02-21 23:35:00,
2013-02-21 16:40:00,45.1,21.6,29.90,SW,223,6.0,6.0,39,0.00,,,0.22,Wunderground v.1.15,2013-02-21 23:40:00,
2013-02-21 16:45:00,44.9,21.4,29.91,West,261,5.0,7.0,39,0.00,,,0.22,Wunderground v.1.15,2013-02-21 23:45:00,
2013-02-21 16:50:00,44.5,21.6,29.91,WSW,244,4.0,4.0,40,0.00,,,0.22,Wunderground v.1.15,2013-02-21 23:50:00,
2013-02-21 16:55:00,44.1,20.7,29.91,West,277,4.0,4.0,39,0.00,,,0.22,Wunderground v.1.15,2013-02-21 23:55:00,
2013-02-21 17:00:00,43.6,20.8,29.91,WSW,246,4.0,4.0,40,0.00,,,0.22,Wunderground v.1.15,2013-02-22 00:00:00,
2013-02-21 17:05:00,43.2,21.6,29.91,WNW,284,4.0,4.0,42,0.00,,,0.22,Wunderground v.1.15,2013-02-22 00:05:00,
2013-02-21 17:10:00,42.9,21.4,29.92,West,275,3.0,3.0,42,0.00,,,0.22,Wunderground v.1.15,2013-02-22 00:10:00,
2013-02-21 17:15:00,42.7,21.2,29.92,West,271,3.0,3.0,42,0.00,,,0.22,Wunderground v.1.15,2013-02-22 00:15:00,
2013-02-21 17:19:00,42.4,20.9,29.92,WSW,257,4.0,4.0,42,0.00,,,0.22,Wunderground v.1.15,2013-02-22 00:19:00,
2013-02-21 17:25:00,42.2,20.7,29.92,SW,229,4.0,4.0,42,0.00,,,0.22,Wunderground v.1.15,2013-02-22 00:25:00,
2013-02-21 17:30:00,42.0,21.1,29.93,NW,313,3.0,3.0,43,0.00,,,0.22,Wunderground v.1.15,2013-02-22 00:30:00,
2013-02-21 17:35:00,41.7,20.3,29.92,SW,234,2.0,6.0,42,0.00,,,0.22,Wunderground v.1.15,2013-02-22 00:35:00,
2013-02-21 17:40:00,41.5,20.1,29.93,SW,217,3.0,4.0,42,0.00,,,0.22,Wunderground v.1.15,2013-02-22 00:40:00,
2013-02-21 17:45:00,41.3,20.5,29.93,SW,234,3.0,4.0,43,0.00,,,0.22,Wunderground v.1.15,2013-02-22 00:45:00,
2013-02-21 17:50:00,41.0,20.2,29.94,West,279,2.0,2.0,43,0.00,,,0.22,Wunderground v.1.15,2013-02-22 00:50:00,
2013-02-21 17:55:00,40.9,20.1,29.94,SW,226,2.0,2.0,43,0.00,,,0.22,Wunderground v.1.15,2013-02-22 00:55:00,
2013-02-21 18:00:00,40.7,19.9,29.94,West,261,3.0,3.0,43,0.00,,,0.22,Wunderground v.1.15,2013-02-22 01:00:00,
2013-02-21 18:05:00,40.6,19.8,29.94,SW,225,4.0,6.0,43,0.00,,,0.22,Wunderground v.1.15,2013-02-22 01:05:00,
2013-02-21 18:10:00,40.5,20.3,29.95,WSW,254,4.0,4.0,44,0.00,,,0.22,Wunderground v.1.15,2013-02-22 01:10:00,
2013-02-21 18:15:00,40.3,20.1,29.95,WSW,248,3.0,11.0,44,0.00,,,0.22,Wunderground v.1.15,2013-02-22 01:15:00,
2013-02-21 18:19:00,40.1,19.9,29.95,West,269,3.0,3.0,44,0.00,,,0.22,Wunderground v.1.15,2013-02-22 01:19:00,
2013-02-21 18:25:00,40.1,19.9,29.96,WSW,257,3.0,4.0,44,0.00,,,0.22,Wunderground v.1.15,2013-02-22 01:25:00,
2013-02-21 18:30:00,40.0,19.8,29.97,WSW,238,2.0,9.0,44,0.00,,,0.22,Wunderground v.1.15,2013-02-22 01:30:00,
2013-02-21 18:35:00,40.0,20.3,29.97,WNW,292,2.0,9.0,45,0.00,,,0.22,Wunderground v.1.15,2013-02-22 01:35:00,
2013-02-21 18:40:00,40.0,20.3,29.98,West,271,2.0,2.0,45,0.00,,,0.22,Wunderground v.1.15,2013-02-22 01:40:00,
2013-02-21 18:45:00,40.0,19.8,29.98,WSW,242,2.0,3.0,44,0.00,,,0.22,Wunderground v.1.15,2013-02-22 01:45:00,
2013-02-21 18:50:00,39.9,19.7,29.99,West,281,3.0,4.0,44,0.00,,,0.22,Wunderground v.1.15,2013-02-22 01:50:00,
2013-02-21 19:00:00,39.7,19.0,29.98,West,281,4.0,4.0,43,0.00,,,0.22,Wunderground v.1.15,2013-02-22 02:00:00,
2013-02-21 19:04:00,39.5,18.8,29.99,West,279,3.0,4.0,43,0.00,,,0.22,Wunderground v.1.15,2013-02-22 02:04:00,
2013-02-21 19:10:00,39.4,18.7,29.99,WNW,284,3.0,4.0,43,0.00,,,0.22,Wunderground v.1.15,2013-02-22 02:10:00,
2013-02-21 19:15:00,39.3,19.2,29.99,WNW,293,3.0,4.0,44,0.00,,,0.22,Wunderground v.1.15,2013-02-22 02:15:00,
2013-02-21 19:20:00,39.1,19.0,30.00,WNW,283,2.0,2.0,44,0.00,,,0.22,Wunderground v.1.15,2013-02-22 02:20:00,
2013-02-21 19:25:00,38.9,18.8,30.00,WNW,286,2.0,2.0,44,0.00,,,0.22,Wunderground v.1.15,2013-02-22 02:25:00,
2013-02-21 19:35:00,38.5,18.4,30.00,NW,315,3.0,3.0,44,0.00,,,0.22,Wunderground v.1.15,2013-02-22 02:35:00,
2013-02-21 19:40:00,38.3,18.3,30.01,West,278,3.0,4.0,44,0.00,,,0.22,Wunderground v.1.15,2013-02-22 02:40:00,
2013-02-21 19:50:00,38.0,18.5,30.01,SW,228,2.0,4.0,45,0.00,,,0.22,Wunderground v.1.15,2013-02-22 02:50:00,
2013-02-21 19:54:00,37.9,18.9,30.01,West,279,1.0,4.0,46,0.00,,,0.22,Wunderground v.1.15,2013-02-22 02:54:00,
2013-02-21 20:00:00,37.7,18.2,30.01,WNW,291,1.0,1.0,45,0.00,,,0.22,Wunderground v.1.15,2013-02-22 03:00:00,
2013-02-21 20:05:00,37.7,18.2,30.02,WNW,301,2.0,2.0,45,0.00,,,0.22,Wunderground v.1.15,2013-02-22 03:05:00,
2013-02-21 20:10:00,37.6,18.7,30.02,West,281,2.0,2.0,46,0.00,,,0.22,Wunderground v.1.15,2013-02-22 03:10:00,
2013-02-21 20:15:00,37.5,18.6,30.02,West,267,1.0,2.0,46,0.00,,,0.22,Wunderground v.1.15,2013-02-22 03:15:00,
2013-02-21 20:20:00,37.4,18.5,30.02,West,279,1.0,1.0,46,0.00,,,0.22,Wunderground v.1.15,2013-02-22 03:20:00,
2013-02-21 20:25:00,37.3,18.4,30.02,West,279,1.0,1.0,46,0.00,,,0.22,Wunderground v.1.15,2013-02-22 03:25:00,
2013-02-21 20:30:00,37.1,19.2,30.02,West,265,1.0,9.0,48,0.00,,,0.22,Wunderground v.1.15,2013-02-22 03:30:00,
2013-02-21 20:35:00,37.0,18.6,30.02,WNW,290,1.0,9.0,47,0.00,,,0.22,Wunderground v.1.15,2013-02-22 03:35:00,
2013-02-21 20:40:00,36.9,18.5,30.03,NW,305,2.0,2.0,47,0.00,,,0.22,Wunderground v.1.15,2013-02-22 03:40:00,
2013-02-21 20:45:00,36.8,18.4,30.03,WSW,241,1.0,2.0,47,0.00,,,0.22,Wunderground v.1.15,2013-02-22 03:45:00,
2013-02-21 20:50:00,36.7,18.8,30.03,WSW,241,0.0,0.0,48,0.00,,,0.22,Wunderground v.1.15,2013-02-22 03:50:00,
2013-02-21 20:54:00,36.6,18.7,30.03,West,281,1.0,2.0,48,0.00,,,0.22,Wunderground v.1.15,2013-02-22 03:54:00,
2013-02-21 21:00:00,36.6,18.7,30.03,West,281,1.0,2.0,48,0.00,,,0.22,Wunderground v.1.15,2013-02-22 04:00:00,
2013-02-21 21:05:00,36.6,18.7,30.03,NW,306,1.0,2.0,48,0.00,,,0.22,Wunderground v.1.15,2013-02-22 04:05:00,
2013-02-21 21:15:00,36.6,18.7,30.04,WNW,292,1.0,3.0,48,0.00,,,0.22,Wunderground v.1.15,2013-02-22 04:15:00,
2013-02-21 21:20:00,36.7,18.3,30.04,WNW,292,1.0,1.0,47,0.00,,,0.22,Wunderground v.1.15,2013-02-22 04:20:00,
2013-02-21 21:25:00,36.7,18.3,30.03,WNW,292,1.0,2.0,47,0.00,,,0.22,Wunderground v.1.15,2013-02-22 04:25:00,
2013-02-21 21:30:00,36.7,18.8,30.03,WNW,293,2.0,2.0,48,0.00,,,0.22,Wunderground v.1.15,2013-02-22 04:30:00,
2013-02-21 21:35:00,36.6,18.2,30.03,WNW,286,2.0,2.0,47,0.00,,,0.22,Wunderground v.1.15,2013-02-22 04:35:00,
2013-02-21 21:45:00,36.5,18.6,30.04,NNW,344,2.0,4.0,48,0.00,,,0.22,Wunderground v.1.15,2013-02-22 04:45:00,
2013-02-21 21:50:00,36.3,18.5,30.04,NNW,344,1.0,3.0,48,0.00,,,0.22,Wunderground v.1.15,2013-02-22 04:50:00,
2013-02-21 21:54:00,36.2,18.4,30.04,NNW,343,1.0,3.0,48,0.00,,,0.22,Wunderground v.1.15,2013-02-22 04:54:00,
2013-02-21 21:59:00,36.1,18.3,30.04,NNW,343,1.0,1.0,48,0.00,,,0.22,Wunderground v.1.15,2013-02-22 04:59:00,
2013-02-21 22:05:00,35.9,18.6,30.03,NNW,343,0.0,2.0,49,0.00,,,0.22,Wunderground v.1.15,2013-02-22 05:05:00,
2013-02-21 22:10:00,35.7,18.4,30.03,NNW,343,0.0,1.0,49,0.00,,,0.22,Wunderground v.1.15,2013-02-22 05:10:00,
2013-02-21 22:15:00,35.6,17.8,30.04,NNW,343,0.0,1.0,48,0.00,,,0.22,Wunderground v.1.15,2013-02-22 05:15:00,
2013-02-21 22:20:00,35.4,18.1,30.04,NNW,343,0.0,0.0,49,0.00,,,0.22,Wunderground v.1.15,2013-02-22 05:20:00,
2013-02-21 22:25:00,35.2,18.4,30.04,NNW,343,0.0,0.0,50,0.00,,,0.22,Wunderground v.1.15,2013-02-22 05:25:00,
2013-02-21 22:30:00,35.0,18.2,30.03,NNW,343,0.0,4.0,50,0.00,,,0.22,Wunderground v.1.15,2013-02-22 05:30:00,
2013-02-21 22:40:00,34.7,17.9,30.04,NNW,343,0.0,0.0,50,0.00,,,0.22,Wunderground v.1.15,2013-02-22 05:40:00,
2013-02-21 22:45:00,34.4,18.1,30.04,NNW,343,0.0,0.0,51,0.00,,,0.22,Wunderground v.1.15,2013-02-22 05:45:00,
2013-02-21 22:50:00,34.4,18.1,30.04,NNW,343,0.0,0.0,51,0.00,,,0.22,Wunderground v.1.15,2013-02-22 05:50:00,
2013-02-21 22:55:00,34.1,18.7,30.04,NNW,343,0.0,0.0,53,0.00,,,0.22,Wunderground v.1.15,2013-02-22 05:55:00,
2013-02-21 23:00:00,33.8,18.0,30.04,NNW,343,0.0,0.0,52,0.00,,,0.22,Wunderground v.1.15,2013-02-22 06:00:00,
2013-02-21 23:05:00,33.5,17.7,30.05,NNW,343,0.0,1.0,52,0.00,,,0.22,Wunderground v.1.15,2013-02-22 06:05:00,
2013-02-21 23:10:00,33.5,18.2,30.04,NNW,343,1.0,1.0,53,0.00,,,0.22,Wunderground v.1.15,2013-02-22 06:10:00,
2013-02-21 23:15:00,33.6,18.3,30.04,NNW,343,1.0,1.0,53,0.00,,,0.22,Wunderground v.1.15,2013-02-22 06:15:00,
2013-02-21 23:20:00,33.6,18.3,30.04,NNW,343,0.0,0.0,53,0.00,,,0.22,Wunderground v.1.15,2013-02-22 06:20:00,
2013-02-21 23:25:00,33.4,18.5,30.05,NNW,343,0.0,0.0,54,0.00,,,0.22,Wunderground v.1.15,2013-02-22 06:25:00,
2013-02-21 23:30:00,33.3,19.3,30.05,NNW,343,0.0,0.0,56,0.00,,,0.22,Wunderground v.1.15,2013-02-22 06:30:00,
2013-02-21 23:35:00,33.1,18.7,30.05,NNW,343,0.0,0.0,55,0.00,,,0.22,Wunderground v.1.15,2013-02-22 06:35:00,
2013-02-21 23:40:00,32.9,18.5,30.04,NNW,343,0.0,0.0,55,0.00,,,0.22,Wunderground v.1.15,2013-02-22 06:40:00,
2013-02-21 23:45:00,32.8,18.4,30.05,NNW,343,0.0,0.0,55,0.00,,,0.22,Wunderground v.1.15,2013-02-22 06:45:00,
2013-02-21 23:50:00,32.8,18.8,30.05,NNW,343,0.0,0.0,56,0.00,,,0.22,Wunderground v.1.15,2013-02-22 06:50:00,
2013-02-21 23:55:00,32.7,19.1,30.05,NNW,343,0.0,0.0,57,0.00,,,0.22,Wunderground v.1.15,2013-02-22 06:55:00,